• In Belgien
  • Länderverzeichnis
  • Für 7 Tage
  • Wassertemperatur
  • Satellitenkarten
  • Wetterkarte
  • Widgets
  • user-avatar
    Anmelden

    Stündliche Wetter Quito

    Heute, 22 November, Mittwoch

    Zeit Temperatur Niederschläge Wind Luftdruck Luftfeuchtigkeit
    00:00 +18°C° 0,8 mm 1 m/S 621 mmHg 93%
    01:00 +16°C° 0 mm 1 m/S 621 mmHg 94%
    02:00 +16°C° 1,1 mm 1 m/S 621 mmHg 94%
    03:00 +16°C° 1,1 mm 1 m/S 621 mmHg 95%
    04:00 +16°C° 1,1 mm 1 m/S 621 mmHg 96%
    05:00 +16°C° 1 mm 1 m/S 622 mmHg 95%
    06:00 +18°C° 1 mm 1 m/S 622 mmHg 94%
    07:00 +17°C° 1 mm 2 m/S 623 mmHg 94%
    08:00 +18°C° 1,2 mm 2 m/S 623 mmHg 90%
    09:00 +19°C° 1,2 mm 2 m/S 623 mmHg 87%
    10:00 +20°C° 1,2 mm 2 m/S 623 mmHg 84%
    11:00 +21°C° 0,6 mm 2 m/S 623 mmHg 80%
    12:00 +23°C° 0,6 mm 2 m/S 623 mmHg 76%
    13:00 +24°C° 0,6 mm 2 m/S 623 mmHg 72%
    14:00 +23°C° 1,4 mm 2 m/S 622 mmHg 76%
    15:00 +21°C° 1,4 mm 2 m/S 622 mmHg 79%
    16:00 +21°C° 1,4 mm 2 m/S 621 mmHg 83%
    17:00 +21°C° 1,6 mm 1 m/S 621 mmHg 86%
    18:00 +20°C° 1,6 mm 1 m/S 621 mmHg 88%
    19:00 +19°C° 1,6 mm 1 m/S 621 mmHg 91%
    20:00 +18°C° 1,8 mm 1 m/S 622 mmHg 92%
    21:00 +18°C° 1,8 mm 1 m/S 622 mmHg 93%
    22:00 +18°C° 1,8 mm 1 m/S 622 mmHg 94%
    23:00 +18°C° 1,1 mm 1 m/S 622 mmHg 94%

    Morgen, 23 November, Donnerstag

    Zeit Temperatur Niederschläge Wind Luftdruck Luftfeuchtigkeit
    00:00 +18°C° 1,1 mm 1 m/S 622 mmHg 94%
    01:00 +16°C° 1,1 mm 1 m/S 621 mmHg 94%
    02:00 +16°C° 0,3 mm 1 m/S 621 mmHg 94%
    03:00 +15°C° 0,3 mm 0 m/S 621 mmHg 94%
    04:00 +15°C° 0,3 mm 0 m/S 621 mmHg 94%
    05:00 +16°C° 0,3 mm 0 m/S 621 mmHg 93%
    06:00 +18°C° 0,3 mm 1 m/S 622 mmHg 92%
    07:00 +18°C° 0,3 mm 1 m/S 622 mmHg 91%
    08:00 +19°C° 0,4 mm 1 m/S 622 mmHg 87%
    09:00 +20°C° 0,4 mm 1 m/S 623 mmHg 82%
    10:00 +21°C° 0,4 mm 1 m/S 623 mmHg 78%
    11:00 +21°C° 0,6 mm 1 m/S 623 mmHg 77%
    12:00 +20°C° 0,6 mm 2 m/S 622 mmHg 77%
    13:00 +21°C° 0,6 mm 2 m/S 622 mmHg 77%
    14:00 +20°C° 0,6 mm 2 m/S 621 mmHg 81%
    15:00 +19°C° 0,6 mm 2 m/S 620 mmHg 84%
    16:00 +18°C° 0,6 mm 2 m/S 620 mmHg 88%
    17:00 +17°C° 0 mm 2 m/S 620 mmHg 89%
    18:00 +18°C° 0 mm 1 m/S 620 mmHg 91%
    19:00 +16°C° 0 mm 1 m/S 620 mmHg 93%
    20:00 +16°C° 0,1 mm 1 m/S 621 mmHg 92%
    21:00 +16°C° 0,1 mm 1 m/S 621 mmHg 92%
    22:00 +16°C° 0,1 mm 1 m/S 622 mmHg 92%
    23:00 +15°C° 0,2 mm 1 m/S 621 mmHg 92%

    übermorgen, 24 November, Freitag

    Zeit Temperatur Niederschläge Wind Luftdruck Luftfeuchtigkeit
    00:00 +15°C° 0,2 mm 1 m/S 621 mmHg 92%
    01:00 +15°C° 0,2 mm 1 m/S 621 mmHg 93%
    02:00 +15°C° 0,1 mm 1 m/S 621 mmHg 93%
    03:00 +14°C° 0,1 mm 0 m/S 621 mmHg 93%
    04:00 +14°C° 0,1 mm 0 m/S 621 mmHg 93%
    05:00 +15°C° 0,3 mm 0 m/S 621 mmHg 93%
    06:00 +15°C° 0,3 mm 0 m/S 622 mmHg 92%
    07:00 +15°C° 0,3 mm 0 m/S 622 mmHg 91%
    08:00 +18°C° 0,5 mm 1 m/S 623 mmHg 89%
    09:00 +19°C° 0,5 mm 1 m/S 623 mmHg 87%
    10:00 +20°C° 0,5 mm 1 m/S 623 mmHg 85%
    11:00 +21°C° 0,2 mm 1 m/S 623 mmHg 79%
    12:00 +23°C° 0,2 mm 1 m/S 623 mmHg 73%
    13:00 +24°C° 0,2 mm 1 m/S 623 mmHg 66%
    14:00 +24°C° 0,3 mm 1 m/S 622 mmHg 67%
    15:00 +24°C° 0,3 mm 1 m/S 622 mmHg 68%
    16:00 +23°C° 0,3 mm 1 m/S 621 mmHg 69%
    17:00 +22°C° 0,9 mm 1 m/S 621 mmHg 76%
    18:00 +20°C° 0,9 mm 1 m/S 621 mmHg 84%
    19:00 +18°C° 0,9 mm 1 m/S 621 mmHg 91%
    20:00 +18°C° 0,6 mm 1 m/S 622 mmHg 92%
    21:00 +18°C° 0,6 mm 1 m/S 622 mmHg 93%
    22:00 +16°C° 0,6 mm 0 m/S 622 mmHg 93%
    23:00 +15°C° 0,3 mm 0 m/S 622 mmHg 94%

    25 November, Samstag

    Zeit Temperatur Niederschläge Wind Luftdruck Luftfeuchtigkeit
    00:00 +15°C° 0,3 mm 0 m/S 621 mmHg 95%
    01:00 +15°C° 0,3 mm 0 m/S 621 mmHg 95%
    02:00 +15°C° 0,6 mm 0 m/S 621 mmHg 96%
    03:00 +15°C° 0,6 mm 0 m/S 621 mmHg 96%
    04:00 +15°C° 0,6 mm 0 m/S 621 mmHg 97%
    05:00 +15°C° 1 mm 0 m/S 621 mmHg 96%
    06:00 +15°C° 1 mm 0 m/S 622 mmHg 95%
    07:00 +16°C° 1 mm 0 m/S 622 mmHg 95%
    08:00 +16°C° 0,8 mm 0 m/S 622 mmHg 92%
    09:00 +17°C° 0,8 mm 0 m/S 623 mmHg 88%
    10:00 +20°C° 0,8 mm 1 m/S 623 mmHg 85%
    11:00 +21°C° 0,3 mm 1 m/S 623 mmHg 80%
    12:00 +23°C° 0,3 mm 1 m/S 623 mmHg 75%
    13:00 +24°C° 0,3 mm 1 m/S 622 mmHg 69%
    14:00 +24°C° 0,6 mm 1 m/S 622 mmHg 70%
    15:00 +24°C° 0,6 mm 1 m/S 622 mmHg 71%
    16:00 +22°C° 0,6 mm 0 m/S 621 mmHg 72%
    17:00 +22°C° 1,5 mm 1 m/S 621 mmHg 78%
    18:00 +21°C° 1,5 mm 1 m/S 621 mmHg 85%
    19:00 +19°C° 1,5 mm 1 m/S 622 mmHg 92%
    20:00 +19°C° 1,1 mm 1 m/S 622 mmHg 92%
    21:00 +19°C° 1,1 mm 1 m/S 622 mmHg 93%
    22:00 +18°C° 1,1 mm 1 m/S 622 mmHg 94%
    23:00 +18°C° 0,8 mm 1 m/S 622 mmHg 94%

    26 November, Sonntag

    Zeit Temperatur Niederschläge Wind Luftdruck Luftfeuchtigkeit
    00:00 +18°C° 0,8 mm 1 m/S 621 mmHg 95%
    01:00 +18°C° 0,8 mm 1 m/S 621 mmHg 95%
    02:00 +18°C° 0,7 mm 1 m/S 621 mmHg 95%
    03:00 +16°C° 0,7 mm 1 m/S 621 mmHg 96%
    04:00 +16°C° 0,7 mm 1 m/S 621 mmHg 96%
    05:00 +16°C° 0,3 mm 0 m/S 621 mmHg 95%
    06:00 +16°C° 0,3 mm 0 m/S 622 mmHg 94%
    07:00 +17°C° 0,3 mm 0 m/S 623 mmHg 93%
    08:00 +20°C° 0,5 mm 1 m/S 623 mmHg 89%
    09:00 +21°C° 0,5 mm 1 m/S 623 mmHg 86%
    10:00 +22°C° 0,5 mm 1 m/S 624 mmHg 82%
    11:00 +20°C° 1,1 mm 2 m/S 623 mmHg 84%
    12:00 +20°C° 1,1 mm 2 m/S 623 mmHg 85%
    13:00 +20°C° 1,1 mm 2 m/S 622 mmHg 86%
    14:00 +19°C° 1,3 mm 2 m/S 622 mmHg 89%
    15:00 +18°C° 1,3 mm 2 m/S 622 mmHg 91%
    16:00 +18°C° 1,3 mm 2 m/S 621 mmHg 93%
    17:00 +18°C° 0,4 mm 1 m/S 622 mmHg 94%
    18:00 +18°C° 0,4 mm 1 m/S 622 mmHg 95%
    19:00 +16°C° 0,4 mm 1 m/S 622 mmHg 96%
    20:00 +16°C° 0,2 mm 1 m/S 622 mmHg 97%
    21:00 +16°C° 0,2 mm 1 m/S 622 mmHg 97%
    22:00 +15°C° 0,2 mm 1 m/S 622 mmHg 97%
    23:00 +15°C° 0 mm 1 m/S 622 mmHg 97%

    27 November, Montag

    Zeit Temperatur Niederschläge Wind Luftdruck Luftfeuchtigkeit
    00:00 +15°C° 0 mm 1 m/S 622 mmHg 97%
    01:00 +15°C° 0 mm 2 m/S 622 mmHg 98%
    02:00 +15°C° 0 mm 2 m/S 622 mmHg 97%
    03:00 +15°C° 0 mm 1 m/S 622 mmHg 97%
    04:00 +15°C° 0 mm 1 m/S 621 mmHg 97%
    05:00 +15°C° 0,2 mm 2 m/S 622 mmHg 96%
    06:00 +15°C° 0,2 mm 2 m/S 623 mmHg 95%
    07:00 +16°C° 0,2 mm 2 m/S 623 mmHg 94%
    08:00 +17°C° 0,6 mm 2 m/S 623 mmHg 92%
    09:00 +17°C° 0,6 mm 2 m/S 623 mmHg 89%
    10:00 +18°C° 0,6 mm 2 m/S 623 mmHg 87%
    11:00 +19°C° 0,4 mm 2 m/S 623 mmHg 84%
    12:00 +20°C° 0,4 mm 2 m/S 623 mmHg 82%
    13:00 +20°C° 0,4 mm 2 m/S 622 mmHg 80%
    14:00 +21°C° 0,3 mm 2 m/S 622 mmHg 78%
    15:00 +21°C° 0,3 mm 2 m/S 622 mmHg 76%
    16:00 +23°C° 0,3 mm 2 m/S 622 mmHg 74%
    17:00 +20°C° 0,5 mm 2 m/S 622 mmHg 80%
    18:00 +20°C° 0,5 mm 1 m/S 622 mmHg 86%
    19:00 +18°C° 0,5 mm 1 m/S 622 mmHg 92%
    20:00 +18°C° 0,2 mm 1 m/S 623 mmHg 93%
    21:00 +18°C° 0,2 mm 1 m/S 623 mmHg 94%
    22:00 +16°C° 0,2 mm 1 m/S 623 mmHg 95%
    23:00 +16°C° 0 mm 1 m/S 622 mmHg 95%
    Mehr zeigen